UAL2690 KEWR-KIAH

Flight info

Callsign UAL2690
Flight time N/A
Altitude 34000
Route LANNA J48 CSN FANPO Q40 AEX GESNR2
Aircraft B739/M-SDE2E3FGHIRWXY/LB1

Departure

Time 2026-04-21 18:33
Airport Newark Liberty International Airport (KEWR)

Arrival

Time N/A
Airport George Bush Intercontinental Airport (KIAH)
Time Latitude Longitude Altitude Speed Heading
2026-04-21 17:43 40.68293 -74.18248 21 ft 0 kts 349°
2026-04-21 18:22 40.68281 -74.18245 23 ft 3 kts 349°
2026-04-21 18:22 40.68262 -74.18239 23 ft 4 kts 319°
2026-04-21 18:22 40.68245 -74.18217 23 ft 4 kts 346°
2026-04-21 18:22 40.68233 -74.18221 23 ft 4 kts 85°
2026-04-21 18:23 40.68235 -74.18255 21 ft 3 kts 94°
2026-04-21 18:23 40.68235 -74.18259 21 ft 1 kts 94°
2026-04-21 18:25 40.68235 -74.18257 21 ft 1 kts 94°
2026-04-21 18:25 40.68233 -74.18223 23 ft 7 kts 94°
2026-04-21 18:26 40.68237 -74.18144 21 ft 10 kts 84°
2026-04-21 18:26 40.68236 -74.18042 21 ft 12 kts 94°
2026-04-21 18:26 40.68210 -74.17927 21 ft 14 kts 115°
2026-04-21 18:26 40.68168 -74.17813 21 ft 14 kts 116°
2026-04-21 18:27 40.68158 -74.17719 21 ft 10 kts 52°
2026-04-21 18:27 40.68220 -74.17672 21 ft 10 kts 25°
2026-04-21 18:27 40.68286 -74.17630 21 ft 11 kts 25°
2026-04-21 18:27 40.68361 -74.17584 21 ft 12 kts 25°
2026-04-21 18:28 40.68442 -74.17532 22 ft 14 kts 26°
2026-04-21 18:28 40.68533 -74.17474 23 ft 15 kts 26°
2026-04-21 18:28 40.68630 -74.17411 22 ft 16 kts 26°
2026-04-21 18:28 40.68735 -74.17344 22 ft 18 kts 26°
2026-04-21 18:29 40.68849 -74.17271 22 ft 19 kts 26°
2026-04-21 18:29 40.68970 -74.17193 21 ft 20 kts 26°
2026-04-21 18:29 40.69100 -74.17110 20 ft 21 kts 26°
2026-04-21 18:29 40.69234 -74.17024 21 ft 22 kts 25°
2026-04-21 18:30 40.69372 -74.16938 21 ft 22 kts 25°
2026-04-21 18:30 40.69506 -74.16854 21 ft 21 kts 26°
2026-04-21 18:30 40.69636 -74.16772 21 ft 20 kts 26°
2026-04-21 18:30 40.69763 -74.16690 20 ft 20 kts 26°
2026-04-21 18:31 40.69884 -74.16613 21 ft 19 kts 26°
2026-04-21 18:31 40.69998 -74.16541 20 ft 12 kts 25°
2026-04-21 18:31 40.70057 -74.16497 20 ft 8 kts 47°
2026-04-21 18:31 40.70063 -74.16423 19 ft 10 kts 94°
2026-04-21 18:32 40.70030 -74.16359 18 ft 10 kts 191°
2026-04-21 18:32 40.69940 -74.16418 18 ft 31 kts 206°
2026-04-21 18:32 40.69538 -74.16673 22 ft 96 kts 206°
2026-04-21 18:32 40.68767 -74.17165 23 ft 147 kts 206°
2026-04-21 18:33 40.67747 -74.17803 258 ft 166 kts 205°
2026-04-21 18:33 40.66631 -74.18463 603 ft 185 kts 199°
2026-04-21 18:33 40.65363 -74.18514 1198 ft 187 kts 173°
2026-04-21 18:33 40.64074 -74.18701 1752 ft 191 kts 210°
2026-04-21 18:34 40.62882 -74.19650 1987 ft 211 kts 212°
2026-04-21 18:34 40.61600 -74.20690 2306 ft 224 kts 212°
2026-04-21 18:34 40.60248 -74.21823 2696 ft 241 kts 213°
2026-04-21 18:34 40.58833 -74.23081 3215 ft 249 kts 225°
2026-04-21 18:35 40.58157 -74.24326 3751 ft 249 kts 246°
2026-04-21 18:35 40.57504 -74.27230 4785 ft 253 kts 257°
2026-04-21 18:35 40.57101 -74.29487 5534 ft 254 kts 258°
2026-04-21 18:35 40.56687 -74.31747 6344 ft 254 kts 258°
2026-04-21 18:36 40.56422 -74.34030 7082 ft 253 kts 272°
2026-04-21 18:36 40.56489 -74.36334 7806 ft 253 kts 275°
2026-04-21 18:36 40.56558 -74.38650 8507 ft 254 kts 275°
2026-04-21 18:36 40.56605 -74.40990 9236 ft 255 kts 275°
2026-04-21 18:37 40.56632 -74.43298 9961 ft 256 kts 276°
2026-04-21 18:37 40.56647 -74.45678 10404 ft 269 kts 276°
2026-04-21 18:37 40.56654 -74.48247 10546 ft 290 kts 275°
2026-04-21 18:37 40.56649 -74.50984 10699 ft 309 kts 275°
2026-04-21 18:38 40.56633 -74.53885 10930 ft 324 kts 274°
2026-04-21 18:38 40.56606 -74.56884 11425 ft 330 kts 274°
2026-04-21 18:38 40.56573 -74.59903 12066 ft 331 kts 274°
2026-04-21 18:38 40.56537 -74.62911 12720 ft 333 kts 274°
2026-04-21 18:39 40.56499 -74.65977 13357 ft 336 kts 274°
2026-04-21 18:39 40.56462 -74.69063 14005 ft 339 kts 274°
2026-04-21 18:39 40.56423 -74.72181 14604 ft 342 kts 274°
2026-04-21 18:39 40.56384 -74.75324 15199 ft 345 kts 274°
2026-04-21 18:40 40.56343 -74.78491 15830 ft 347 kts 275°
2026-04-21 18:40 40.56300 -74.81685 16444 ft 350 kts 275°
2026-04-21 18:40 40.56272 -74.83811 16844 ft 352 kts 275°
2026-04-21 18:40 40.56213 -74.88150 17630 ft 356 kts 275°
2026-04-21 18:41 40.56168 -74.91417 18161 ft 360 kts 275°
2026-04-21 18:41 40.56121 -74.94736 18734 ft 363 kts 275°
2026-04-21 18:41 40.56065 -74.98068 19267 ft 366 kts 273°
2026-04-21 18:41 40.55633 -75.01377 19759 ft 380 kts 259°
2026-04-21 18:42 40.54622 -75.04642 20265 ft 392 kts 250°
2026-04-21 18:42 40.53082 -75.07673 20737 ft 406 kts 239°
2026-04-21 18:42 40.51269 -75.10550 21218 ft 410 kts 238°
2026-04-21 18:42 40.49411 -75.13420 21681 ft 414 kts 237°
2026-04-21 18:43 40.47536 -75.16309 22139 ft 417 kts 238°
2026-04-21 18:43 40.45647 -75.19235 22604 ft 420 kts 238°
2026-04-21 18:43 40.43759 -75.22182 23061 ft 422 kts 238°
2026-04-21 18:43 40.41865 -75.25154 23502 ft 426 kts 238°
2026-04-21 18:44 40.39961 -75.28151 23906 ft 429 kts 238°
2026-04-21 18:44 40.38061 -75.31142 24263 ft 433 kts 238°
2026-04-21 18:44 40.36101 -75.34227 24637 ft 436 kts 238°
2026-04-21 18:44 40.34182 -75.37242 24994 ft 438 kts 238°
2026-04-21 18:45 40.32219 -75.40322 25361 ft 441 kts 238°
2026-04-21 18:45 40.30245 -75.43417 25728 ft 443 kts 238°
2026-04-21 18:45 40.28285 -75.46486 26111 ft 445 kts 238°
2026-04-21 18:45 40.26273 -75.49636 26475 ft 447 kts 238°
2026-04-21 18:46 40.24288 -75.52739 26812 ft 450 kts 238°
2026-04-21 18:46 40.22277 -75.55895 27182 ft 451 kts 239°
2026-04-21 18:46 40.20445 -75.59198 27484 ft 448 kts 244°
2026-04-21 18:46 40.18749 -75.62619 27817 ft 449 kts 245°
2026-04-21 18:47 40.17073 -75.66086 28145 ft 452 kts 245°
2026-04-21 18:47 40.15381 -75.69560 28476 ft 454 kts 245°
2026-04-21 18:47 40.13658 -75.73042 28797 ft 457 kts 244°
2026-04-21 18:47 40.11903 -75.76546 29104 ft 460 kts 244°
2026-04-21 18:48 40.10140 -75.80043 29390 ft 462 kts 244°
2026-04-21 18:48 40.08413 -75.83460 29787 ft 463 kts 244°
2026-04-21 18:48 40.06609 -75.87006 30225 ft 461 kts 244°
2026-04-21 18:48 40.04873 -75.90410 30644 ft 460 kts 244°
2026-04-21 18:49 40.03101 -75.93883 30979 ft 460 kts 244°
2026-04-21 18:49 40.01287 -75.97440 31310 ft 460 kts 244°
2026-04-21 18:49 40.00112 -75.99744 31549 ft 460 kts 244°
2026-04-21 18:49 39.97745 -76.04379 32030 ft 458 kts 244°
2026-04-21 18:50 39.96031 -76.07731 32351 ft 458 kts 244°
2026-04-21 18:50 39.94225 -76.11297 32644 ft 458 kts 244°
2026-04-21 18:50 39.92481 -76.14761 32955 ft 457 kts 244°
2026-04-21 18:50 39.90742 -76.18209 33355 ft 454 kts 244°
2026-04-21 18:51 39.89001 -76.21638 33711 ft 453 kts 244°
2026-04-21 18:51 39.87249 -76.25060 33975 ft 454 kts 244°
2026-04-21 18:51 39.85490 -76.28487 34192 ft 455 kts 244°
2026-04-21 18:51 39.83728 -76.31912 34472 ft 454 kts 244°
2026-04-21 18:52 39.81986 -76.35295 34740 ft 453 kts 244°
2026-04-21 18:52 39.80242 -76.38680 35038 ft 451 kts 244°
2026-04-21 18:52 39.78500 -76.42059 35333 ft 449 kts 244°
2026-04-21 18:52 39.76761 -76.45435 35573 ft 448 kts 244°
2026-04-21 18:53 39.75028 -76.48796 35816 ft 448 kts 244°
2026-04-21 18:53 39.73293 -76.52157 36044 ft 446 kts 243°
2026-04-21 18:53 39.71570 -76.55489 36348 ft 444 kts 243°
2026-04-21 18:53 39.69850 -76.58814 36594 ft 442 kts 243°
2026-04-21 18:54 39.68168 -76.62062 36758 ft 443 kts 243°
2026-04-21 18:54 39.66412 -76.65452 36917 ft 443 kts 243°
2026-04-21 18:54 39.64694 -76.68765 37148 ft 442 kts 243°
2026-04-21 18:54 39.63010 -76.72005 37399 ft 440 kts 243°
2026-04-21 18:55 39.61844 -76.74246 37550 ft 439 kts 243°
2026-04-21 18:55 39.59560 -76.78636 37784 ft 439 kts 243°
2026-04-21 18:55 39.57874 -76.81872 37984 ft 438 kts 243°
2026-04-21 18:55 39.56167 -76.85144 38202 ft 437 kts 243°
2026-04-21 18:56 39.54500 -76.88340 38283 ft 436 kts 242°
2026-04-21 18:56 39.51055 -76.94928 38284 ft 437 kts 242°
2026-04-21 18:57 39.47004 -77.00734 38311 ft 450 kts 226°
2026-04-21 18:57 39.42050 -77.05883 38329 ft 450 kts 225°
2026-04-21 18:58 39.37181 -77.10898 38367 ft 450 kts 225°